Home   Weather   Linz   Past weeks

Flag for Austria Past Weather in Linz, Upper Austria, Austria — Yesterday and Last 2 Weeks

46 °F


Feels Like: 46 °F
Forecast: 42 / 55 °F
Wind: 2 mph from North

Location: Linz / Hoersching-Flughafen

Current Time: Oct 26, 2016 at 9:16:58 PM

Latest Report: Oct 26, 2016 at 8:20 PM

Visibility: 4 mi

Pressure: 30.36 "Hg

Humidity: 100%

Dew Point: 46 °F

Location of LinzLocation

Past Weather in Linz — Graph


Linz Temperature Yesterday

Maximum temperature yesterday: 55 °F (at 2:50 PM)
Minimum temperature yesterday: 45 °F (at 3:50 AM)
Average temperature yesterday: 50 °F

High & Low Weather Summary for the Past Weeks

High66 °F (Oct 16, 2:20 PM)100% (Oct 12, 1:50 AM)30.33 "Hg (Oct 12, 1:50 AM)
Low32 °F (Oct 23, 2:50 AM)54% (Oct 22, 2:50 PM)29.74 "Hg (Oct 15, 4:20 AM)
Average48 °F89%30.06 "Hg
* Reported Oct 11 7:20 PM — Oct 26 7:50 PM, Linz, Weather by CustomWeather, © 2016

Note: Actual official high and low records may vary slightly from our data, if they occured in-between our weather recording intervals... More about our weather records


Linz Weather History for the Previous 24 Hours

Scroll right to see more
Time TempWeatherWind HumidityBarometerVisibility
7:50 PM
Wed, Oct 26
48 °FPassing clouds.6 mph94%30.33 "Hg5 mi
7:20 PM48 °FPassing clouds.6 mph94%30.33 "Hg6 mi
6:50 PM50 °FPassing clouds.5 mph94%30.33 "Hg6 mi
6:20 PM52 °FPassing clouds.7 mph88%30.33 "HgN/A
5:50 PM52 °FPassing clouds.7 mph88%30.33 "HgN/A
5:20 PM54 °FPassing clouds.6 mph82%30.33 "HgN/A
4:50 PM55 °FScattered clouds.8 mph82%30.30 "HgN/A
4:20 PM57 °FScattered clouds.6 mph72%30.30 "HgN/A
3:50 PM57 °FScattered clouds.6 mph72%30.30 "HgN/A
3:20 PM57 °FPartly sunny.6 mph77%30.30 "HgN/A
2:50 PM55 °FScattered clouds.7 mph82%30.30 "HgN/A
2:20 PM57 °FScattered clouds.5 mph77%30.30 "HgN/A
1:50 PM55 °FBroken clouds.6 mph82%30.33 "HgN/A
1:20 PM55 °FBroken clouds.3 mph82%30.33 "HgN/A
12:50 PM55 °FBroken clouds.3 mph82%30.33 "HgN/A
12:20 PM55 °FBroken clouds.1 mph82%30.33 "HgN/A
11:50 AM55 °FBroken clouds.1 mph82%30.33 "HgN/A
11:20 AM54 °FBroken clouds.1 mph82%30.33 "Hg4 mi
10:50 AM54 °FFog.2 mph88%30.33 "Hg3 mi
10:20 AM52 °FFog.1 mph94%30.33 "Hg2 mi
9:50 AM52 °FFog.2 mph94%30.33 "Hg2 mi
9:20 AM52 °FFog.2 mph94%30.33 "Hg2 mi
8:50 AM52 °FFog.2 mph94%30.33 "Hg2 mi
8:20 AM50 °FFog.3 mph100%30.33 "Hg2 mi
7:50 AM50 °FFog.5 mph100%30.30 "Hg2 mi
7:20 AM52 °FFog.5 mph94%30.30 "Hg3 mi
6:50 AM52 °FFog.6 mph94%30.30 "Hg3 mi
6:20 AM52 °FFog.6 mph94%30.27 "Hg3 mi
5:50 AM52 °FFog.5 mph94%30.27 "Hg3 mi
5:20 AM52 °FFog.2 mph94%30.27 "Hg3 mi
4:50 AM52 °FPassing clouds.1 mph100%30.27 "Hg5 mi
4:20 AM52 °FFog.3 mph94%30.24 "Hg3 mi
3:50 AM52 °FFog.3 mph100%30.24 "Hg2 mi
3:20 AM54 °FFog.1 mph94%30.24 "Hg1 mi
2:50 AM54 °FCool.2 mph100%30.24 "Hg1 mi
2:20 AM54 °FFog.1 mph100%30.24 "Hg1 mi
1:50 AM54 °FFog.1 mph100%30.21 "Hg2 mi
1:20 AM54 °FCool.1 mph100%30.24 "Hg2 mi
12:50 AM54 °FFog.1 mph100%30.21 "Hg1 mi
12:20 AM54 °FFog.2 mph100%30.21 "Hg1 mi
11:50 PM
Tue, Oct 25
54 °FFog.1 mph100%30.21 "Hg2 mi
11:20 PM54 °FFog.2 mph100%30.21 "Hg2 mi
10:50 PM54 °FDrizzle. Fog.3 mph100%30.21 "Hg2 mi
10:20 PM54 °FFog.3 mph100%30.21 "Hg2 mi
9:50 PM54 °FFog.3 mph100%30.21 "Hg2 mi
9:20 PM54 °FFog.3 mph100%30.21 "Hg2 mi
Weather by CustomWeather, © 2016

See weather overviewHow to use our weather pages